Flag for U.S.A. Weather past 2 weeks in Plano, Texas, U.S.A.

Now
79 °F

Clear.


Feels Like: 82 °F
Forecast: 74 / 92 °F
Wind: No wind

Location: McKinney Municipal Airport

Current Time: Aug 29, 2014 at 10:23:32 PM

Latest Report: Aug 29, 2014 at 9:53 PM


Visibility: 10 mi

Pressure: 29.90 "Hg

Humidity: 72%

Dew point: 69 °F

Location of PlanoLocation

Historic Weather in Plano — Graph

°F

Plano temperature yesterday

Maximum temperature yesterday: 95 °F (at 4:53 PM)
Minimum temperature yesterday: 69 °F (at 3:53 AM)
Average temperature yesterday: 83 °F

Past Weeks' High & Low Weather Summary

 TemperatureHumidityPressure
High101 °F (Aug 16, 3:53 PM)97% (Aug 18, 2:53 AM)30.06 "Hg (Aug 18, 2:53 AM)
Low69 °F (Aug 15, 4:53 AM)25% (Aug 22, 4:53 PM)29.81 "Hg (Aug 19, 5:53 PM)
Average84 °F63%29.93 "Hg
* Reported Aug 14 8:53 PM — Aug 29 8:53 PM, Plano, Weather by CustomWeather, © 2014

Note: Actual official high and low records may vary slightly from our data, if they occured in-between our weather recording intervals... More about our weather records

Advertising

Plano weather history for previous 24 hours

 ConditionsComfort  
Time TempWeatherWind HumidityBarometerVisibility
8:53 PM
Aug 29
80 °FSunny.No wind69%29.87 "Hg10 mi
7:53 PM81 °FSunny.3 mph67%29.86 "Hg10 mi
6:53 PM84 °FThundershowers. Partly sunny.20 mph59%29.85 "Hg10 mi
5:53 PM92 °FPassing clouds.3 mph41%29.83 "Hg10 mi
4:53 PM88 °FScattered clouds.5 mph48%29.84 "Hg10 mi
3:53 PM91 °FPassing clouds.3 mph42%29.83 "Hg10 mi
1:53 PM88 °FScattered clouds.12 mph50%29.88 "Hg10 mi
12:53 PM87 °FScattered clouds.14 mph51%29.90 "Hg10 mi
11:53 AM85 °FScattered clouds.16 mph59%29.91 "Hg10 mi
10:53 AM78 °FPartly sunny.7 mph76%29.92 "Hg10 mi
9:53 AM76 °FPartly sunny.7 mph80%29.90 "Hg10 mi
8:53 AM75 °FSunny.5 mph74%29.87 "Hg10 mi
7:53 AM71 °FClear.10 mph84%29.89 "Hg10 mi
6:53 AM72 °FPassing clouds.5 mph81%29.89 "Hg10 mi
5:53 AM72 °FOvercast.7 mph84%29.92 "Hg10 mi
4:53 AM72 °FPassing clouds.5 mph81%29.91 "Hg10 mi
3:53 AM73 °FOvercast.6 mph79%29.91 "Hg10 mi
2:53 AM74 °FOvercast.8 mph74%29.93 "Hg10 mi
1:53 AM81 °FPassing clouds.12 mph72%29.90 "Hg10 mi
12:53 AM81 °FClear.12 mph69%29.88 "Hg10 mi
11:53 PM
Aug 28
83 °FClear.12 mph63%29.90 "Hg10 mi
10:53 PM84 °FClear.12 mph61%29.88 "Hg10 mi
Weather by CustomWeather, © 2014

See weather overviewHow to use our weather pages